Regional Weather Roundup
Issued by NWS

Home | Current Version | Previous Version | Text Only | Print | Product List | Glossary On
Versions: 1 2 3 4 5 6 7 8 9 10 11 12 13 14 15 16 17 18 19 20 21 22 23 24 25 26 27 28 29 30 31 32 33 34 35 36 37 38 39 40 41 42 43 44 45 46 47 48 49 50
000
ASCA44 KEWX 201020
RWRMX

LATIN AMERICA AND CARIBBEAN REGIONAL WEATHER ROUNDUP
NATIONAL WEATHER SERVICE AUSTIN/SAN ANTONIO TX
400 AM CST SAT DEC 20 2014

NOTE: "FAIR" INDICATED FEW OR NO CLOUDS BELOW 12,000 FEET WITH NO
SIGNIFICANT WEATHER AND/OR OBSTRUCTIONS TO VISIBILITY.

BAJA CALIFORNIA

CITY           SKY/WX    TMP DP  RH WIND       PRES   REMARKS
TIJUANA        PTCLDY    52  46  82 CALM      30.18S

NORTHWESTERN MEXICO

CITY           SKY/WX    TMP DP  RH WIND       PRES   REMARKS
DURANGO        CLEAR     34  21  60 CALM      30.18R

NORTHEASTERN MEXICO

CITY           SKY/WX    TMP DP  RH WIND       PRES   REMARKS
MONTERREY      CLOUDY    57  55  94 SE6       30.11S FOG
REYNOSA        CLOUDY    59  52  77 N6        30.12S

WESTERN MEXICO

CITY           SKY/WX    TMP DP  RH WIND       PRES   REMARKS
DEL BAJIO      CLEAR     46  37  71 NE2       30.25S
GUADALAJARA    CLEAR     48  41  76 CALM      30.14
MAZATLAN       PTCLDY    52  48  87 NW8       29.93S
P. VALLARTA    PTCLDY    66  64  94 CALM      29.93R
ZACATECAS      CLEAR     50  30  46 CALM      30.20

CENTRAL MEXICO

CITY           SKY/WX    TMP DP  RH WIND       PRES   REMARKS
MEXICO CITY    CLEAR     55  45  67 SW3       30.27F
MORELIA        CLEAR     43  39  87 CALM      30.20
QUERETARO      CLEAR     46  45  93 CALM      30.27S
S. LUIS POTOSI MOCLDY    54  52  94 SE9       30.18S
TAMPICO        MOCLDY    68  61  77 N23       30.04
TOLUCA         PTCLDY    37  34  87 CALM      30.35S

SOUTHERN MEXICO

CITY           SKY/WX    TMP DP  RH WIND       PRES   REMARKS
ACAPULCO       CLEAR     72  70  94 N2        29.87F

YUCATAN PENINSULA

CITY           SKY/WX    TMP DP  RH WIND       PRES   REMARKS
CANCUN         MOCLDY    73  73 100 CALM      29.93S
COZUMEL        PTCLDY    70  70 100 E3        29.93F
MERIDA         CLEAR     72  70  94 CALM      29.93S
TAPACHULA      PTCLDY    75  72  88 CALM      29.89F

CENTRAL AMERICA

CITY           SKY/WX    TMP DP  RH WIND       PRES   REMARKS
MANAGUA          N/A     72  68  88 CALM      29.83

CARIBBEAN

CITY           SKY/WX    TMP DP  RH WIND       PRES   REMARKS
CURACAO        PTCLDY    79  72  78 E10       29.89S
KINGSTON       MOCLDY    77  64  65 N6        29.92S
NASSAU         PTCLDY    66  61  82 CALM      30.05R
SAN JUAN       PTCLDY    73  70  88 CALM      29.98R
SANTO DOMINGO  PTCLDY    72  68  88 N12       29.94S
ST. KITTS      PTCLDY    77  70  78 NE12      29.94
ST. MAARTEN    PTCLDY    79  70  73 E8        29.97R
ST. THOMAS     CLEAR     73  68  83 SE5       29.97

$$



USA.gov is the U.S. government's official web portal to all federal, state and local government web resources and services.